Record,Date/Time,10,Tamb(K),Rh(%),Pres(mb),Tir(K),Rain,Az(deg),El(deg),TkBB(K), Ch  22.234, Ch  23.034, Ch  23.834, Ch  26.234, Ch  30.000, Ch  51.248, Ch  52.280, Ch  53.848, Ch  54.940, Ch  56.660, Ch  57.288, Ch  58.800, Ch 
Record,Date/Time,40,Tamb(K),Rh(%),Pres(mb),Tir(K),Rain
Record,Date/Time,50,Az(deg),El(deg),TkBB(K), Ch  22.000, Ch  22.234, Ch  22.500, Ch  23.000, Ch  23.034, Ch  23.500, Ch  23.834, Ch  24.000, Ch  24.500, Ch  25.000, Ch  25.500, Ch  26.000, Ch  26.234, Ch  26.500, Ch  27.000, Ch  27.500, Ch  28.000, Ch  28.500, Ch  29.000, Ch  29.500, Ch  30.000, Ch  51.248, Ch  51.760, Ch  52.280, Ch  52.804, Ch  53.336, Ch  53.848, Ch  54.400, Ch  54.940, Ch  55.500, Ch  56.020, Ch  56.660, Ch  57.288, Ch  57.964, Ch  58.800, Ch 
Record,Date/Time,80,ID,SNR,Tamb(K),Rh(%),Pres(mb),Tir(K),Rain,Az(deg),El(deg),TkBB(K), Ch  22.234, Ch  23.034, Ch  23.834, Ch  26.234, Ch  30.000, Ch  51.248, Ch  52.280, Ch  53.848, Ch  54.940, Ch  56.660, Ch  57.288, Ch  58.800, Ch 
     1,09/02/18 00:00:34,41, 288.3660,  80.7800,1010.0500, 268.9100,1
     2,09/02/18 00:01:11,51,  0.00, 19.80,301.085, 79.151, 82.676, 82.461, 80.386,, 75.775, 73.272, 71.294, 67.025, 61.015, 58.485, 54.571,,, 52.946,, 50.505,, 49.722,, 51.220,224.604,243.277,262.727,277.829,286.742,289.447,289.202,288.810,287.073,286.828,286.755,285.067,286.360,287.285,
     3,09/02/18 00:01:30,51,  0.00, 90.00,301.077, 33.208, 35.115, 34.962, 33.835,, 31.834, 30.811, 30.240, 28.971, 26.384, 25.700, 23.836,,, 23.603,, 22.752,, 23.310,, 23.595,115.550,133.368,158.642,191.032,228.220,261.023,282.239,289.154,290.142,288.705,288.768,285.251,287.632,288.013,
     4,09/02/18 00:01:48,51,  0.00,160.20,301.087, 74.225, 77.917, 77.333, 74.966,, 71.107, 67.962, 66.778, 62.053, 57.559, 54.477, 51.216,,, 48.976,, 47.339,, 47.051,, 48.004,212.788,232.673,254.436,273.609,285.365,289.880,290.131,289.165,288.115,287.515,287.342,285.592,286.642,287.000,
     5,09/02/18 00:02:12,41, 288.2570,  81.2500,1010.1220, 277.6600,1
     6,09/02/18 00:02:49,51,  0.00, 19.80,301.036, 79.680, 82.718, 82.787, 80.257,, 76.240, 73.692, 71.566, 66.763, 61.429, 58.614, 54.776,,, 53.040,, 50.744,, 50.256,, 51.915,224.864,243.232,263.048,278.569,286.911,289.772,289.686,288.567,287.762,286.285,285.809,284.927,286.647,287.181,
     7,09/02/18 00:03:07,51,  0.00, 90.00,301.057, 33.554, 35.266, 34.697, 34.370,, 32.562, 31.697, 30.716, 29.201, 26.943, 25.896, 24.412,,, 24.189,, 23.530,, 24.020,, 24.546,117.099,134.663,160.252,191.737,228.510,261.613,282.446,289.315,290.013,288.335,287.968,284.666,287.355,287.210,
     8,09/02/18 00:03:26,51,  0.00,160.20,301.028, 74.422, 77.658, 77.175, 75.017,, 71.120, 67.884, 66.471, 61.838, 57.809, 54.807, 50.843,,, 49.132,, 47.086,, 47.291,, 48.662,213.399,232.705,254.799,273.343,285.210,289.860,289.904,289.296,288.340,286.309,286.627,284.945,286.300,286.901,
     9,09/02/18 00:03:50,41, 288.4090,  81.1000,1010.0120, 267.5500,1
    10,09/02/18 00:04:27,51,  0.00, 19.80,300.995, 80.392, 83.519, 82.902, 80.043,, 75.527, 73.172, 71.931, 66.227, 61.381, 58.512, 54.900,,, 53.188,, 50.842,, 50.192,, 51.683,224.839,243.506,263.060,278.719,287.201,289.597,289.578,288.739,288.307,286.577,286.431,285.403,286.154,286.893,
    11,09/02/18 00:04:46,51,  0.00, 90.00,301.004, 34.602, 35.919, 35.280, 34.099,, 32.431, 31.352, 30.982, 29.384, 26.823, 25.719, 24.239,,, 24.309,, 23.227,, 23.460,, 23.490,115.835,134.005,158.759,191.257,228.210,261.058,282.260,289.344,290.902,287.951,288.708,285.144,287.142,286.850,
    12,09/02/18 00:05:04,51,  0.00,160.20,301.017, 75.132, 78.657, 77.512, 75.442,, 71.058, 68.418, 67.133, 62.220, 57.659, 54.816, 51.411,,, 49.540,, 47.830,, 47.029,, 48.525,213.077,232.828,254.348,273.569,285.085,289.560,289.930,289.043,288.173,286.311,286.589,285.119,285.867,286.762,
    13,09/02/18 00:05:28,41, 288.3390,  80.7500,1009.7940, 274.9700,1
    14,09/02/18 00:06:05,51,  0.00, 19.80,300.952, 80.275, 83.091, 83.157, 80.579,, 76.240, 73.271, 71.587, 66.717, 61.744, 58.751, 54.746,,, 52.922,, 50.964,, 50.035,, 51.783,224.124,243.204,262.584,278.582,287.539,289.892,289.312,288.764,287.773,286.251,286.604,285.164,286.786,286.693,
    15,09/02/18 00:06:24,51,  0.00, 90.00,300.945, 34.785, 35.528, 35.793, 34.794,, 32.655, 31.919, 31.141, 29.525, 27.536, 25.900, 24.831,,, 24.208,, 23.301,, 23.885,, 23.744,115.857,134.024,158.668,191.710,228.807,261.293,281.640,289.432,290.824,288.313,288.430,284.982,287.603,287.436,
    16,09/02/18 00:06:43,51,  0.00,160.20,300.953, 75.589, 78.708, 78.170, 76.087,, 71.501, 68.761, 67.380, 62.755, 58.337, 55.111, 51.577,,, 49.634,, 47.424,, 47.583,, 48.713,212.843,232.855,254.249,273.989,285.746,289.456,289.510,289.288,288.440,286.537,286.699,285.183,286.741,287.096,
    17,09/02/18 00:07:06,41, 288.2570,  81.2500,1009.9860, 279.5400,1
    18,09/02/18 00:07:43,51,  0.00, 19.80,300.892, 80.257, 83.375, 82.813, 80.711,, 76.339, 73.609, 71.751, 66.812, 61.464, 58.676, 54.324,,, 52.680,, 50.456,, 50.181,, 51.474,224.273,243.155,262.416,278.135,287.171,289.774,289.302,288.968,287.530,286.143,286.117,285.403,286.608,286.683,
    19,09/02/18 00:08:02,51,  0.00, 90.00,300.851, 34.594, 36.101, 35.863, 34.924,, 32.895, 31.658, 30.765, 29.586, 27.105, 26.170, 24.491,,, 24.143,, 23.342,, 23.858,, 24.428,116.604,134.407,159.061,191.082,228.553,261.392,281.664,289.387,290.277,288.924,288.776,285.032,287.247,287.079,
    20,09/02/18 00:08:21,51,  0.00,160.20,300.888, 75.169, 78.911, 77.797, 75.617,, 71.433, 68.737, 67.151, 62.546, 58.119, 54.850, 51.850,,, 49.745,, 47.713,, 47.934,, 49.009,213.138,233.053,254.281,273.572,285.594,289.519,289.648,289.519,287.931,286.132,286.906,285.110,286.201,286.601,
    21,09/02/18 00:08:45,41, 288.2840,  81.4900,1010.0720, 277.3200,1
    22,09/02/18 00:09:22,51,  0.00, 19.80,300.817, 81.190, 84.068, 83.521, 81.769,, 76.592, 74.099, 72.330, 67.678, 62.184, 59.710, 55.771,,, 53.727,, 51.370,, 50.663,, 52.306,224.932,243.416,262.456,278.115,287.002,289.638,289.217,288.669,287.300,286.109,286.539,285.416,286.819,287.010,
    23,09/02/18 00:09:40,51,  0.00, 90.00,300.787, 35.460, 36.582, 36.191, 35.461,, 33.520, 32.491, 31.601, 30.339, 28.396, 26.994, 25.450,,, 25.049,, 24.122,, 24.493,, 25.264,117.413,134.884,159.491,191.809,228.453,261.188,282.192,288.819,290.383,288.049,288.204,285.262,287.757,287.828,
    24,09/02/18 00:09:59,51,  0.00,160.20,300.802, 75.956, 78.988, 78.330, 76.644,, 71.991, 69.387, 67.652, 63.249, 58.846, 55.825, 52.560,,, 49.940,, 48.268,, 47.839,, 49.445,213.741,233.224,254.347,273.510,285.371,289.296,289.711,288.982,288.062,286.462,286.322,285.212,286.630,286.931,
    25,09/02/18 00:10:23,41, 288.1590,  81.8300,1009.8560, 273.9600,1
    26,09/02/18 00:11:00,51,  0.00, 19.80,300.755, 80.866, 84.153, 83.613, 81.437,, 77.258, 74.490, 72.519, 67.599, 62.313, 59.179, 55.917,,, 53.792,, 51.465,, 50.904,, 52.474,224.748,243.652,262.616,279.001,286.944,289.867,289.346,288.410,288.229,286.921,286.384,285.564,286.748,286.808,
    27,09/02/18 00:11:19,51,  0.00, 90.00,300.762, 35.049, 36.417, 36.099, 35.334,, 33.677, 32.515, 31.341, 30.295, 27.802, 26.968, 25.520,,, 25.238,, 24.139,, 24.462,, 25.490,117.311,135.345,159.628,192.562,228.704,261.270,282.105,288.890,290.001,288.666,288.118,285.267,287.838,287.528,
    28,09/02/18 00:11:37,51,  0.00,160.20,300.731, 76.181, 79.304, 78.432, 76.415,, 72.567, 69.560, 67.674, 63.357, 58.776, 55.323, 52.420,,, 50.433,, 47.859,, 47.880,, 49.782,213.235,233.276,254.212,274.013,285.483,289.593,290.083,289.104,288.724,286.924,286.455,285.178,286.675,286.969,
    29,09/02/18 00:12:01,41, 288.1870,  82.0100,1009.9900, 278.6700,1
    30,09/02/18 00:12:38,51,  0.00, 19.80,300.679, 81.291, 83.948, 83.899, 81.826,, 77.119, 74.559, 73.068, 68.121, 62.917, 59.723, 56.023,,, 54.342,, 52.512,, 51.754,, 53.141,225.614,243.721,262.958,278.719,287.266,288.985,288.596,288.019,287.806,286.293,286.761,285.475,286.211,286.839,
    31,09/02/18 00:12:57,51,  0.00, 90.00,300.702, 34.726, 36.104, 35.718, 35.110,, 33.237, 31.983, 31.586, 30.066, 27.378, 26.111, 25.147,,, 24.892,, 23.905,, 24.330,, 24.507,117.456,135.243,160.266,192.337,228.866,261.188,281.565,288.163,290.119,288.226,288.217,284.856,287.018,287.276,
    32,09/02/18 00:13:15,51,  0.00,160.20,300.678, 76.155, 79.061, 78.766, 76.601,, 72.103, 69.299, 67.718, 63.732, 59.178, 55.950, 52.917,,, 50.681,, 48.992,, 48.505,, 49.797,214.133,233.373,254.609,273.902,285.407,289.364,289.547,288.459,288.290,287.114,287.019,284.884,286.382,286.825,
    33,09/02/18 00:13:39,41, 288.0890,  81.9500,1009.8460, 277.8100,1
    34,09/02/18 00:14:16,51,  0.00, 19.80,300.587, 81.049, 84.269, 83.940, 81.740,, 77.227, 74.537, 72.710, 68.295, 62.618, 59.837, 55.902,,, 53.752,, 52.002,, 51.520,, 52.557,225.248,243.467,262.653,278.637,287.242,289.491,288.927,288.165,287.243,286.293,286.311,284.640,286.688,286.501,
    35,09/02/18 00:14:35,51,  0.00, 90.00,300.637, 34.843, 36.235, 35.838, 35.455,, 33.275, 31.914, 31.575, 30.416, 28.034, 26.970, 25.514,,, 25.180,, 24.460,, 24.984,, 25.289,117.707,135.387,160.207,192.608,228.848,261.339,282.143,288.948,289.987,288.615,288.518,284.759,287.397,286.435,
    36,09/02/18 00:14:54,51,  0.00,160.20,300.614, 76.812, 79.449, 79.190, 76.947,, 72.491, 69.521, 68.576, 63.872, 59.455, 56.581, 52.905,,, 50.934,, 49.045,, 48.836,, 49.828,213.668,233.101,254.639,273.853,285.302,289.000,289.355,288.626,287.765,286.137,286.488,284.553,286.610,285.922,
    37,09/02/18 00:15:17,41, 288.0460,  82.2200,1010.0120, 276.5700,1
    38,09/02/18 00:15:54,51,  0.00, 19.80,300.579, 81.500, 84.688, 84.233, 81.867,, 77.359, 75.066, 73.131, 68.443, 62.760, 59.751, 56.018,,, 54.153,, 51.739,, 51.117,, 52.686,224.946,242.793,262.413,278.471,287.035,289.495,289.042,288.264,287.790,286.801,286.824,285.077,286.707,286.371,
    39,09/02/18 00:16:13,51,  0.00, 90.00,300.564, 34.721, 36.707, 36.114, 34.809,, 33.498, 32.423, 31.870, 30.081, 27.983, 26.848, 25.647,,, 25.291,, 24.591,, 24.915,, 25.189,117.532,134.629,159.888,192.327,228.648,261.441,281.855,289.139,290.315,288.877,288.559,285.599,287.618,287.049,
    40,09/02/18 00:16:32,51,  0.00,160.20,300.571, 76.050, 79.831, 78.849, 76.519,, 72.365, 69.658, 68.499, 63.873, 59.163, 55.616, 52.835,,, 50.606,, 48.506,, 48.588,, 50.077,213.488,232.473,254.697,273.809,284.992,289.421,289.235,288.870,288.053,286.569,286.771,284.625,286.654,286.362,
    41,09/02/18 00:16:56,41, 287.9760,  82.5400,1010.0180, 275.8400,1
    42,09/02/18 00:17:33,51,  0.00, 19.80,300.495, 81.128, 84.407, 84.266, 82.011,, 77.482, 74.654, 72.631, 68.061, 62.710, 59.934, 55.808,,, 53.746,, 51.413,, 50.444,, 52.161,224.937,243.766,262.541,278.499,287.499,289.370,289.354,288.539,287.727,286.456,286.717,284.979,286.429,286.634,
    43,09/02/18 00:17:52,51,  0.00, 90.00,300.467, 34.215, 36.002, 35.753, 34.663,, 33.498, 32.019, 31.538, 29.715, 27.582, 26.830, 25.179,,, 24.941,, 23.770,, 24.227,, 25.330,116.925,134.937,159.783,192.132,228.979,261.322,282.016,289.561,290.869,288.596,289.082,285.202,287.383,286.871,
    44,09/02/18 00:18:10,51,  0.00,160.20,300.491, 76.142, 79.494, 78.597, 76.607,, 72.748, 69.527, 68.441, 63.829, 58.944, 56.401, 52.592,,, 50.710,, 48.865,, 48.739,, 50.009,214.119,233.831,255.014,273.974,285.599,289.455,289.763,289.217,288.266,286.405,287.100,285.083,287.078,286.058,
    45,09/02/18 00:18:34,41, 288.0190,  82.3100,1009.9860, 270.6600,1
    46,09/02/18 00:19:11,51,  0.00, 19.80,300.427, 81.611, 85.002, 84.752, 82.351,, 77.789, 74.584, 73.178, 68.182, 62.878, 60.114, 56.404,,, 54.107,, 51.662,, 50.945,, 52.990,224.912,243.240,262.150,277.990,287.297,289.640,288.976,288.965,287.468,286.657,286.611,285.143,286.881,286.536,
    47,09/02/18 00:19:30,51,  0.00, 90.00,300.428, 34.663, 36.258, 35.849, 35.009,, 33.601, 31.745, 31.062, 29.629, 27.510, 26.584, 25.152,,, 25.047,, 24.073,, 24.667,, 25.225,117.532,135.409,160.012,192.286,228.949,261.483,282.182,289.463,290.485,288.765,288.492,284.892,288.154,287.534,
    48,09/02/18 00:19:49,51,  0.00,160.20,300.454, 76.445, 80.046, 79.112, 77.295,, 72.900, 69.959, 68.535, 63.875, 59.688, 56.533, 53.166,,, 51.272,, 49.181,, 49.247,, 50.606,214.810,233.751,254.541,273.981,285.293,289.352,289.675,289.405,287.981,287.032,286.852,284.804,286.905,286.433,
    49,09/02/18 00:20:12,41, 288.0730,  82.1900,1009.9720, 278.1400,1
    50,09/02/18 00:20:49,51,  0.00, 19.80,300.382, 81.477, 84.755, 83.909, 81.808,, 77.402, 74.809, 73.169, 67.937, 62.557, 60.043, 55.949,,, 53.914,, 51.680,, 50.925,, 52.365,224.612,243.068,262.799,278.836,286.791,289.245,288.788,289.005,287.396,286.146,286.742,285.216,286.877,286.152,
    51,09/02/18 00:21:08,51,  0.00, 90.00,300.398, 35.225, 36.402, 35.738, 34.914,, 33.108, 32.343, 31.548, 30.020, 28.031, 27.225, 25.213,,, 25.373,, 24.100,, 24.647,, 25.309,117.268,135.326,159.992,192.412,228.993,261.617,281.760,289.449,290.201,287.844,288.382,285.388,287.973,287.355,
    52,09/02/18 00:21:27,51,  0.00,160.20,300.396, 76.460, 79.742, 78.623, 76.540,, 72.759, 69.795, 68.658, 64.142, 59.355, 56.169, 52.941,,, 51.053,, 49.156,, 48.880,, 50.689,214.003,233.440,254.710,273.666,285.050,289.376,289.435,289.304,288.175,286.309,286.900,285.191,286.769,286.420,
    53,09/02/18 00:21:50,41, 288.0730,  81.9400,1010.0180, 273.9200,1
    54,09/02/18 00:22:27,51,  0.00, 19.80,300.317, 81.697, 84.789, 84.202, 81.652,, 77.236, 74.921, 72.942, 68.175, 62.879, 59.867, 55.376,,, 53.810,, 51.544,, 50.911,, 52.170,224.419,243.093,262.250,278.441,287.243,289.911,289.277,288.655,287.570,285.869,286.542,285.155,286.283,286.311,
    55,09/02/18 00:22:46,51,  0.00, 90.00,300.363, 34.776, 36.347, 36.271, 34.791,, 33.649, 32.147, 31.462, 30.447, 27.739, 26.798, 25.180,,, 24.775,, 23.973,, 24.154,, 24.643,117.673,134.962,159.838,192.231,228.978,261.268,281.653,288.966,290.538,288.523,288.581,285.371,287.461,287.519,
    56,09/02/18 00:23:05,51,  0.00,160.20,300.360, 75.886, 79.100, 78.429, 76.136,, 72.127, 69.020, 67.843, 63.083, 58.876, 55.975, 52.142,,, 50.192,, 48.391,, 48.156,, 49.710,213.663,232.935,254.496,273.808,285.843,289.869,289.698,288.822,288.330,286.452,286.702,285.581,286.387,286.414,
    57,09/02/18 00:23:28,41, 288.0190,  81.8700,1009.9500, 267.8500,1
    58,09/02/18 00:24:05,51,  0.00, 19.80,300.302, 82.457, 84.834, 84.628, 82.499,, 78.084, 74.829, 73.805, 69.048, 63.405, 60.564, 56.643,,, 54.750,, 52.463,, 52.292,, 53.527,225.730,243.983,263.027,278.574,287.262,289.744,289.588,288.625,288.066,287.282,285.990,284.128,286.401,285.977,
    59,09/02/18 00:24:24,51,  0.00, 90.00,300.274, 35.281, 36.098, 35.794, 34.990,, 33.170, 32.168, 31.713, 30.244, 28.057, 26.698, 25.612,,, 25.164,, 23.920,, 24.833,, 25.634,117.316,134.592,159.994,192.120,228.923,261.684,282.551,289.291,291.089,288.757,288.263,284.338,287.181,286.195,
    60,09/02/18 00:24:43,51,  0.00,160.20,300.279, 75.942, 79.059, 78.469, 76.680,, 72.309, 68.809, 67.816, 63.210, 58.469, 55.938, 51.955,,, 50.393,, 47.771,, 48.031,, 49.291,213.196,232.854,254.822,273.511,285.542,289.386,289.592,288.909,288.549,286.782,286.265,284.766,286.199,285.969,
    61,09/02/18 00:25:06,41, 288.0460,  81.5600,1009.9440, 281.4000,1
    62,09/02/18 00:25:43,51,  0.00, 19.80,300.272, 82.626, 86.006, 85.713, 83.178,, 78.997, 76.239, 74.519, 69.347, 64.172, 62.241, 57.742,,, 55.983,, 53.918,, 53.423,, 55.050,226.639,244.663,263.101,278.812,287.215,289.610,289.507,288.629,287.336,286.552,286.614,285.434,286.992,286.732,
    63,09/02/18 00:26:02,51,  0.00, 90.00,300.230, 35.345, 36.315, 35.844, 35.317,, 33.207, 32.425, 32.053, 30.231, 28.274, 27.831, 25.669,,, 25.551,, 24.272,, 25.241,, 25.380,118.438,136.019,160.825,193.037,229.562,261.663,282.196,289.157,289.952,288.502,288.710,285.416,288.057,288.019,
    64,09/02/18 00:26:21,51,  0.00,160.20,300.274, 76.488, 79.914, 78.891, 76.715,, 72.614, 69.560, 68.469, 63.937, 59.859, 56.894, 53.282,,, 51.088,, 49.015,, 49.174,, 50.762,214.392,233.575,255.086,273.969,285.506,289.781,290.104,288.790,287.889,286.517,286.625,285.378,287.145,287.224,
    65,09/02/18 00:26:45,41, 288.0460,  81.5200,1009.7460, 273.7900,1
    66,09/02/18 00:27:22,51,  0.00, 19.80,300.209, 82.552, 85.862, 85.713, 83.229,, 78.881, 76.060, 74.185, 69.387, 64.872, 61.786, 57.649,,, 55.784,, 53.630,, 53.444,, 55.536,226.192,244.386,263.588,278.892,287.109,289.524,289.276,288.467,287.599,286.717,286.553,285.288,286.586,286.615,
    67,09/02/18 00:27:40,51,  0.00, 90.00,300.224, 35.238, 36.450, 36.448, 35.143,, 33.516, 32.229, 31.698, 29.945, 27.928, 27.260, 25.495,,, 25.288,, 24.394,, 24.773,, 25.676,117.231,134.810,160.655,192.748,229.413,261.310,282.456,289.518,290.354,289.033,288.725,285.337,287.706,287.498,
    68,09/02/18 00:27:59,51,  0.00,160.20,300.217, 75.535, 79.494, 78.653, 76.301,, 72.531, 69.291, 68.145, 63.285, 59.044, 55.978, 52.415,,, 50.351,, 48.249,, 48.330,, 50.058,213.320,233.083,255.439,274.265,286.087,289.937,289.713,289.005,287.989,286.686,286.821,284.528,286.545,287.175,
    69,09/02/18 00:28:23,41, 287.9090,  82.1900,1009.8320, 278.8900,1
    70,09/02/18 00:29:00,51,  0.00, 19.80,300.164, 83.258, 86.246, 86.181, 83.896,, 79.341, 76.740, 75.161, 70.386, 64.983, 62.655, 58.548,,, 56.710,, 54.315,, 53.848,, 55.610,226.927,245.025,263.741,278.506,287.061,289.441,289.261,287.952,287.606,286.065,286.421,285.088,286.918,286.465,
    71,09/02/18 00:29:19,51,  0.00, 90.00,300.132, 35.290, 36.315, 36.043, 35.109,, 33.310, 32.001, 31.868, 30.451, 27.971, 27.431, 26.022,,, 25.256,, 24.774,, 25.120,, 25.732,118.375,136.409,161.041,192.797,229.397,261.667,282.111,289.141,290.954,288.498,288.525,285.515,287.805,287.229,
    72,09/02/18 00:29:37,51,  0.00,160.20,300.156, 75.935, 78.813, 78.220, 76.357,, 72.311, 69.355, 67.868, 63.397, 58.716, 55.943, 52.624,,, 50.521,, 48.186,, 48.234,, 49.708,213.510,233.430,254.920,273.794,285.317,289.581,290.323,289.358,288.093,286.736,286.666,285.092,286.510,286.322,
    73,09/02/18 00:30:02,41, 287.7690,  82.7200,1009.7120, 276.8000,1
    74,09/02/18 00:30:39,51,  0.00, 19.80,300.131, 83.127, 85.555, 85.400, 83.190,, 79.284, 76.095, 74.909, 69.645, 64.339, 62.284, 57.599,,, 56.333,, 53.805,, 53.664,, 55.027,226.185,244.746,263.161,278.795,286.995,289.012,289.197,288.217,287.923,286.612,286.414,284.888,286.287,287.010,
    75,09/02/18 00:30:58,51,  0.00, 90.00,300.101, 34.810, 35.698, 35.558, 34.755,, 33.228, 31.739, 31.394, 30.119, 27.475, 27.359, 25.236,,, 25.517,, 24.409,, 25.221,, 25.605,118.352,136.598,160.964,193.350,229.182,261.398,282.194,289.267,290.551,288.492,288.592,285.100,287.038,287.562,
    76,09/02/18 00:31:17,51,  0.00,160.20,300.104, 75.902, 79.418, 78.333, 75.912,, 72.382, 69.416, 68.178, 63.791, 58.875, 56.303, 52.732,,, 50.725,, 49.057,, 48.656,, 50.625,213.754,233.815,254.916,274.179,285.406,289.629,289.992,289.123,288.728,286.320,286.578,285.030,286.091,286.890,
    77,09/02/18 00:31:40,41, 287.7410,  82.9700,1009.4880, 274.9300,1
    78,09/02/18 00:32:17,51,  0.00, 19.80,300.052, 83.596, 86.684, 85.857, 84.164,, 79.296, 76.633, 74.928, 70.533, 64.627, 62.595, 58.437,,, 56.685,, 54.619,, 54.041,, 56.165,226.566,244.541,263.303,278.847,287.317,289.147,289.138,288.016,287.390,286.020,286.386,285.152,286.562,286.843,
    79,09/02/18 00:32:36,51,  0.00, 90.00,300.020, 34.757, 36.230, 35.404, 35.013,, 32.786, 31.857, 31.212, 29.876, 27.898, 27.031, 25.530,,, 25.347,, 24.833,, 24.690,, 25.193,117.644,135.608,160.276,192.536,229.461,261.455,281.879,289.038,290.341,288.402,288.754,285.797,288.034,287.287,
    80,09/02/18 00:32:55,51,  0.00,160.20,300.014, 75.707, 79.240, 78.094, 76.323,, 72.000, 69.037, 67.591, 63.279, 58.482, 56.133, 52.813,,, 50.697,, 49.026,, 48.740,, 50.203,213.759,233.109,254.499,273.720,285.509,289.362,289.545,289.028,287.916,286.602,286.214,285.203,286.402,286.225,
    81,09/02/18 00:33:19,41, 287.6710,  83.1800,1009.2600, 277.2000,1
    82,09/02/18 00:33:56,51,  0.00, 19.80,299.953, 82.764, 85.828, 85.506, 83.369,, 78.771, 76.440, 74.578, 69.262, 64.439, 61.361, 57.564,,, 55.816,, 53.345,, 52.979,, 54.749,226.037,244.148,263.180,278.621,287.685,289.966,289.719,288.769,287.523,286.035,286.379,284.736,287.129,286.367,
    83,09/02/18 00:34:15,51,  0.00, 90.00,299.942, 34.289, 35.603, 35.360, 34.525,, 33.102, 31.732, 31.589, 29.772, 27.390, 26.714, 25.300,,, 25.279,, 24.141,, 24.722,, 25.660,117.811,135.673,160.658,192.487,229.444,262.002,282.635,289.622,291.010,288.963,289.031,285.213,288.146,287.694,
    84,09/02/18 00:34:34,51,  0.00,160.20,299.943, 75.256, 78.549, 77.440, 75.616,, 71.820, 68.610, 67.587, 63.169, 58.571, 55.346, 52.178,,, 50.750,, 48.057,, 48.259,, 50.380,213.565,233.521,255.115,273.799,285.866,289.674,290.215,289.104,288.379,286.440,286.612,284.799,286.640,286.471,
    85,09/02/18 00:34:59,41, 287.7410,  83.3500,1009.4580, 277.8700,1
    86,09/02/18 00:35:36,51,  0.00, 19.80,299.877, 82.788, 85.997, 86.031, 83.396,, 79.084, 76.265, 74.679, 70.217, 64.375, 61.830, 57.591,,, 56.099,, 54.133,, 53.638,, 55.027,226.534,244.565,263.774,278.485,286.855,289.656,289.161,288.344,287.466,286.284,287.079,285.468,286.503,286.440,
    87,09/02/18 00:35:55,51,  0.00, 90.00,299.865, 34.321, 35.968, 36.048, 34.428,, 33.507, 31.690, 31.127, 30.202, 27.715, 26.907, 25.486,,, 25.065,, 24.395,, 25.144,, 25.675,117.957,135.861,160.532,192.703,229.272,261.327,282.479,289.140,290.751,288.896,289.004,285.253,287.234,287.734,
    88,09/02/18 00:36:14,51,  0.00,160.20,299.879, 75.447, 79.104, 78.721, 76.281,, 71.947, 68.493, 67.779, 63.553, 59.118, 56.055, 52.350,,, 51.057,, 48.793,, 48.970,, 49.956,213.938,233.457,254.728,273.980,285.663,289.384,290.318,289.109,287.947,286.251,286.912,284.938,286.506,286.780,
    89,09/02/18 00:36:38,41, 287.7140,  83.2200,1009.4360, 276.8800,1
    90,09/02/18 00:37:15,51,  0.00, 19.80,299.822, 83.646, 86.668, 86.790, 84.591,, 80.455, 76.886, 75.527, 71.255, 65.884, 62.568, 59.298,,, 57.800,, 54.835,, 54.557,, 56.642,227.129,245.116,263.535,278.901,287.264,289.942,289.518,288.860,287.669,286.783,286.642,285.292,286.597,286.964,
    91,09/02/18 00:37:34,51,  0.00, 90.00,299.820, 34.528, 35.739, 35.820, 34.625,, 33.179, 32.061, 31.371, 30.339, 28.134, 26.688, 25.704,,, 25.614,, 24.161,, 25.003,, 25.881,119.030,136.427,161.004,193.213,229.352,262.091,282.011,289.511,290.500,289.577,289.079,285.429,287.914,287.825,
    92,09/02/18 00:37:53,51,  0.00,160.20,299.815, 74.896, 78.114, 77.312, 75.540,, 71.312, 68.385, 66.892, 63.335, 58.423, 55.664, 51.777,,, 50.484,, 47.714,, 47.643,, 49.340,213.819,232.788,254.605,273.730,285.533,289.514,289.729,288.948,288.153,286.841,286.953,285.006,286.152,287.250,
    93,09/02/18 00:38:17,41, 287.7140,  83.1900,1009.5360, 281.5200,1
    94,09/02/18 00:38:54,51,  0.00, 19.80,299.794, 83.318, 86.268, 86.505, 83.957,, 79.506, 76.970, 75.621, 70.525, 65.084, 62.635, 58.470,,, 56.733,, 54.792,, 54.330,, 55.563,226.449,244.614,263.997,278.925,287.051,289.840,289.241,288.608,287.119,286.080,286.527,285.112,286.376,286.887,
    95,09/02/18 00:39:12,51,  0.00, 90.00,299.769, 35.403, 36.307, 36.287, 35.415,, 34.137, 33.238, 32.763, 31.174, 28.355, 28.098, 26.281,,, 26.037,, 24.907,, 26.177,, 26.417,119.063,136.672,161.702,193.411,229.257,261.625,282.543,289.587,290.441,288.555,289.163,285.593,287.605,287.703,
    96,09/02/18 00:39:31,51,  0.00,160.20,299.772, 75.183, 78.615, 77.926, 75.576,, 71.559, 68.816, 67.559, 62.631, 58.396, 55.772, 52.204,,, 50.777,, 48.670,, 48.693,, 49.139,213.580,233.009,255.139,274.209,285.442,289.316,289.831,289.249,287.397,286.734,286.662,284.787,285.848,286.414,
    97,09/02/18 00:39:55,41, 287.5890,  83.6400,1009.3400, 275.3700,1
    98,09/02/18 00:40:32,51,  0.00, 19.80,299.689, 83.082, 85.655, 85.576, 83.578,, 78.837, 76.099, 74.346, 69.890, 64.513, 61.722, 57.600,,, 55.990,, 54.026,, 52.703,, 54.929,226.071,244.210,263.200,279.293,287.484,289.755,289.400,288.527,287.688,286.890,286.512,285.330,286.767,286.537,